Погода в Ивоте

Россия / Брянская область     53°40′30″N   34°11′51″E
темп.,
°C
ветер,
м/с
пор.,
м/с
влажн.,
%
обл.,
%
осадки,
мм/ч
давл.,
гПа
погр.,
м
6 марта, сб
сб600:00−7з269030 0.0 1016179
03:00−7сз269645 0.1 1018242
06:00−9сз269266 0.1 1018152
09:00−7сз268662 0.1 1020349
12:00−4зсз356733 0.0 10201095
15:00−3зсз476156 0.2 10191491
18:00−5з387667 0.1 1019381
21:00−8з3108634 0.1 1019333
7 марта, вс
вс700:00−8зюз412830 0.0 1017478
03:00−7юз5148050 0.0 1014611
06:00−5юз61581100 0.0 1009767
09:00−4зюз81787100 0.2 10051214
12:00−2зюз91788100 1.1 10001282
15:000з81596100 2.4 9991206
18:00−4з4127692 1.9 1001873
21:00−6з4147765 2.1 1002768
8 марта, пн
пн800:00−5зюз615730 0.0 10001105
03:00−7зсз8157033 0.1 10011218
06:00−10зсз614786 0.0 1003894
09:00−8сз5108252 0.1 1006850
12:00−6зсз597249 0.0 1008911
15:00−5зсз697351 0.1 10091184
18:00−6зсз4882100 0.1 1010824
21:00−9зсз269493 0.1 1013202
9 марта, вт
вт900:00−10сз259694 0.0 1014139
03:00−11ссз249696 0.1 1015140
06:00−11ссз2594100 0.0 1016254
09:00−10ссз3587100 0.1 1018435
12:00−8ссз3574100 0.0 1019860
15:00−7ссз3569100 0.1 10201037
18:00−9сз268089 0.0 1020448
21:00−12зсз229252 0.0 102331
10 марта, ср
ср1000:00−12з249480 0.0 102395
03:00−12юз249189 0.0 1023127
06:00−10юз4994100 0.8 1021511
09:00−7зюз41093100 2.6 1021599
12:00−5з5990100 1.2 1021819
15:00−3зсз4788100 1.8 1021713
18:00−9всв3793100 0.9 1022374
21:00−11в3793100 1.3 1024396